Mankato, MN

1:48 AM CST on November 20, 2019 (GMT -0600)
Mankato Regional

Weather History for KMKT - September, 2019

Change the Weather History Date:

Sunday, September 1, 2019

  Actual Average Record
Temperature  
Mean Temperature 64 °F -  
Max Temperature 73 °F 75 °F 91 °F (2011)
Min Temperature 54 °F 56 °F 50 °F (2003)
Degree Days  
Heating Degree Days 2    
Growing Degree Days 14 (Base 50)    
Moisture  
Dew Point 60 °F    
Average Humidity 88    
Maximum Humidity 100    
Minimum Humidity 73    
Precipitation  
Precipitation 0.00 in - - ()
Sea Level Pressure  
Sea Level Pressure 30.10 in    
Wind  
Wind Speed 7 mph ()    
Max Wind Speed 12 mph    
Max Gust Speed 16 mph    
Visibility 10.0 miles    
Events      
Averages and records for this station are not official NWS values.
T = Trace of Precipitation, MM = Missing Value Source: Averaged Metar Reports

Daily Weather History Graph

Daily Weather History Graph

Search for Another Location

Airport or City:

Astronomy

Sep. 01, 2019 Rise Set
Actual Time 6:38 AM CDT 7:52 PM CDT
Civil Twilight 6:08 AM CDT 8:21 PM CDT
Nautical Twilight 5:32 AM CDT 8:57 PM CDT
Astronomical Twilight 4:54 AM CDT 9:35 PM CDT
Moon 9:13 AM CDT (9/1) 9:34 PM CDT (9/1)
Length of Visible Light 14h 13m
Length of Day
13h 13m
Waxing Crescent, 8% of the Moon is Illuminated
Sep 1
Waxing Crescent
Sep 5
First Quarter
Sep 13
Full
Sep 21
Last Quarter
Sep 28
New

Hourly Weather History & Observations

Time (CDT) Temp. Dew Point Humidity Pressure Visibility Wind Dir Wind Speed Gust Speed Precip Events Conditions
12:56 AM 57.0 °F 55.0 °F 93% 30.20 in 10.0 mi SSE 5.8 mph - N/A   Clear
1:56 AM 54.0 °F 53.1 °F 97% 30.19 in 10.0 mi ESE 5.8 mph - N/A   Clear
2:56 AM 55.0 °F 55.0 °F 100% 30.18 in 10.0 mi SSE 6.9 mph - N/A   Overcast
3:56 AM 57.0 °F 55.9 °F 96% 30.17 in 10.0 mi SSE 8.1 mph - N/A   Overcast
4:56 AM 55.9 °F 55.0 °F 97% 30.16 in 10.0 mi SSE 6.9 mph - N/A   Overcast
5:56 AM 55.9 °F 55.0 °F 97% 30.15 in 10.0 mi SSE 6.9 mph - N/A   Overcast
6:56 AM 55.9 °F 55.0 °F 97% 30.14 in 10.0 mi SSE 9.2 mph - N/A   Overcast
7:56 AM 57.0 °F 55.9 °F 96% 30.14 in 10.0 mi SSE 11.5 mph - N/A   Overcast
8:56 AM 59.0 °F 57.0 °F 93% 30.13 in 10.0 mi SSE 9.2 mph - N/A   Overcast
9:56 AM 62.1 °F 57.9 °F 86% 30.13 in 10.0 mi South 9.2 mph - N/A   Overcast
10:56 AM 66.0 °F 59.0 °F 78% 30.12 in 10.0 mi South 10.4 mph 16.1 mph N/A   Mostly Cloudy
11:56 AM 66.9 °F 60.1 °F 79% 30.11 in 10.0 mi South 6.9 mph - N/A   Overcast
12:56 PM 69.1 °F 61.0 °F 75% 30.09 in 10.0 mi South 11.5 mph - N/A   Overcast
1:56 PM 70.0 °F 63.0 °F 78% 30.08 in 10.0 mi South 9.2 mph - N/A   Overcast
2:56 PM 71.1 °F 63.0 °F 75% 30.07 in 10.0 mi South 9.2 mph - N/A   Overcast
3:56 PM 73.0 °F 64.0 °F 73% 30.06 in 10.0 mi South 6.9 mph - N/A   Overcast
4:56 PM 73.9 °F 64.9 °F 73% 30.05 in 10.0 mi South 9.2 mph - N/A   Overcast
5:56 PM 73.9 °F 64.9 °F 73% 30.04 in 10.0 mi South 8.1 mph - N/A   Mostly Cloudy
6:56 PM 73.0 °F 66.0 °F 79% 30.04 in 10.0 mi South 5.8 mph - N/A   Partly Cloudy
7:56 PM 70.0 °F 66.0 °F 87% 30.04 in 10.0 mi SSE 4.6 mph - N/A   Partly Cloudy
8:56 PM 66.9 °F 66.0 °F 97% 30.05 in 10.0 mi SSE 4.6 mph - N/A   Clear
9:56 PM 66.0 °F 64.9 °F 96% 30.05 in 10.0 mi SSE 5.8 mph - N/A   Clear
10:56 PM 64.9 °F 64.0 °F 97% 30.06 in 10.0 mi SSE 3.5 mph - N/A   Mostly Cloudy
11:56 PM 64.9 °F 64.0 °F 97% 30.06 in 10.0 mi South 4.6 mph - N/A   Partly Cloudy